C/2015 K7

Japanese version
Home page
Updated on January 2, 2025

---------------------------------------------------------------------

* Profile

Discovery Date May 17, 2015
Magnitude 23.4 mag
Discoverer Small Solar System Bodies Search Project (COIAS)

* Orbital Elements

Epoch 2013 Mar. 9.0 TT = JDT 2456360.5                                          
T 2013 Feb. 20.05507 TT                                 Veres                   
q   9.9404246            (2000.0)            P               Q                  
z  -0.0004400      Peri.    5.10332     -0.28986878     -0.89606426             
 +/-0.0000008      Node   257.93548     -0.88980806     +0.12295077             
e   1.0043734      Incl.  159.89050     -0.35244533     +0.42655827             
From-Y6659 observations 2013 Mar. 9-2015 May 26, mean residual 0".3.            

* Magnitudes Graph

        m1 = 7.0 + 5 log d + 10.0 log r

---------------------------------------------------------------------

The orbital elements are published on M.P.E.C. 2024-Y66.
The magnitudes graphs are made with Comet for Windows.

---------------------------------------------------------------------

Copyright(C) Seiichi Yoshida (comet@aerith.net). All rights reserved.